Location: *
(42.3442°N, 9.2072°E)
Time: 00:41:36
(UTC+00:00)

Cosmos 1076 Rocket - Pass Details

Date: 09 April 2020
Orbit: 590 x 612 km, 82.5° (Epoch: 02 June)

Event Time Altitude Azimuth Distance (km) Brightness Sun altitude
Rises 19:39:52 0° 359° (N) 2,849 7.4 -18.3°
Reaches altitude 10° 19:42:12 10° 7° (N) 1,946 6.4 -18.7°
Maximum altitude 19:46:15 39° 77° (ENE) 910 4.0 -19.3°
Enters shadow 19:46:22 39° 82° (E) 912 4.0 -19.3°
